Location: Astronomy Club of Akron Observatory
(40.9700°N, 81.5606°W)
Time: 22:25:05
(UTC-04:00)

Hubble Space Telescope - Visible Passes

Search period start: 23 March 2019 00:00
Search period end: 02 April 2019 00:00
Orbit: 537 x 540 km, 28.5° (Epoch: 22 March)

Date Brightness Start Highest point End Pass type
(mag) Time Alt. Az. Time Alt. Az. Time Alt. Az.
25 Mar 3.1 20:52:36 10° S 20:53:10 10° SSE 20:53:42 10° SSE visible
26 Mar 3.0 20:41:07 10° S 20:42:32 11° S 20:43:57 10° SSE visible
27 Mar 3.0 20:30:06 10° SSW 20:31:55 13° S 20:33:43 10° SE visible
28 Mar 3.0 20:19:15 10° SSW 20:21:18 13° S 20:23:21 10° SE visible
28 Mar 3.4 21:59:43 10° SW 21:59:53 10° SW 21:59:53 10° SW visible
29 Mar 3.3 21:49:23 10° SW 21:50:02 11° SSW 21:50:02 11° SSW visible
30 Mar 3.2 21:39:14 10° SSW 21:40:11 11° SSW 21:40:11 11° SSW visible
